Home   Weather   May Pen   Past weeks

Flag for Jamaica Past Weather in May Pen, Jamaica — Yesterday and Last 2 Weeks

Now
82 °F

Passing clouds.


Feels Like: 89 °F
Forecast: 79 / 90 °F
Wind: 16 mph from Southeast

Location: Kingston / Norman Manley

Current Time: Aug 21, 2017 at 3:37:56 am

Latest Report: Aug 21, 2017 at 2:00 am


Visibility: N/A

Pressure: 29.89 "Hg

Humidity: 79%

Dew Point: 75 °F

Location of May PenLocation

Past Weather in May Pen — Graph

°F

May Pen Temperature Yesterday

Maximum temperature yesterday: 88 °F (at 1:00 pm)
Minimum temperature yesterday: 81 °F (at 11:15 am)
Average temperature yesterday: 84 °F

High & Low Weather Summary for the Past Weeks

 TemperatureHumidityPressure
High93 °F (Aug 15, 11:00 am)89% (Aug 6, 6:00 am)30.01 "Hg (Aug 6, 6:00 am)
Low77 °F (Aug 6, 6:00 am)53% (Aug 15, 4:00 pm)29.80 "Hg (Aug 19, 3:00 pm)
Average85 °F72%29.92 "Hg
* Reported Aug 6 2:00 am — Aug 21 2:00 am, May Pen. Weather by CustomWeather, © 2017

Note: Actual official high and low records may vary slightly from our data, if they occured in-between our weather recording intervals... More about our weather records

Advertising

May Pen Weather History for the Previous 24 Hours

Scroll right to see more
 ConditionsComfort  
Time TempWeatherWind HumidityBarometerVisibility
2:00 am
Mon, Aug 21
82 °FPassing clouds.16 mph79%29.89 "HgN/A
1:00 am84 °FPassing clouds.18 mph79%29.89 "HgN/A
12:00 am84 °FPassing clouds.20 mph79%29.92 "HgN/A
11:00 pm
Sun, Aug 20
84 °FThunderstorms. Passing clouds.20 mph79%29.92 "HgN/A
10:00 pm84 °FThunderstorms. Passing clouds.20 mph79%29.92 "HgN/A
9:35 pm84 °FThunderstorms. Passing clouds.17 mph79%29.92 "HgN/A
9:00 pm84 °FPassing clouds.20 mph79%29.89 "HgN/A
8:00 pm82 °FSprinkles. Partly cloudy.20 mph84%29.89 "HgN/A
7:00 pm86 °FThunderstorms. Partly cloudy.17 mph70%29.86 "HgN/A
6:30 pm86 °FThunderstorms. Partly cloudy.16 mph70%29.86 "HgN/A
6:00 pm86 °FBroken clouds.22 mph70%29.86 "HgN/A
5:00 pm86 °FBroken clouds.20 mph70%29.83 "HgN/A
4:00 pm86 °FBroken clouds.23 mph70%29.83 "HgN/A
3:00 pm86 °FSprinkles. Broken clouds.20 mph70%29.86 "HgN/A
2:00 pm88 °FPartly sunny.20 mph66%29.89 "HgN/A
1:00 pm88 °FPartly sunny.16 mph66%29.86 "HgN/A
12:00 pm82 °FBroken clouds.7 mph84%29.89 "HgN/A
11:15 am81 °FScattered showers. Broken clouds.14 mph84%29.89 "Hg4 mi
11:00 am82 °FStrong thunderstorms. Broken clouds.24 mph79%29.92 "HgN/A
10:00 am86 °FScattered clouds.5 mph70%29.89 "HgN/A
9:00 am86 °FPassing clouds.5 mph70%29.86 "HgN/A
8:00 am84 °FPassing clouds.6 mph74%29.86 "HgN/A
7:00 am82 °FPassing clouds.8 mph79%29.83 "HgN/A
6:00 am84 °FPassing clouds.3 mph70%29.83 "HgN/A
5:00 am82 °FPassing clouds.12 mph74%29.80 "HgN/A
4:00 am82 °FPassing clouds.7 mph74%29.83 "HgN/A
3:00 am82 °FPassing clouds.10 mph74%29.80 "HgN/A
Weather by CustomWeather, © 2017

See weather overviewHow to use our weather pages